| time (UTC) | temp C | wind direction | speed KPH | gust KPH | rain 1hr cm | rain 24hr cm | rain mn cm | humidity % | barometer mb |
| 20260502194621 | 17 | 225 | 12.9 | 20.9 | 0.00 | 0.00 | 0.00 | 42 | 1024.5 |
| 20260502193133 | 17 | 224 | 9.7 | 20.9 | 0.00 | 0.00 | 0.00 | 43 | 1024.6 |
| 20260502191631 | 16 | 115 | 9.7 | 17.7 | 0.00 | 0.00 | 0.00 | 43 | 1024.9 |
| 20260502190123 | 17 | 163 | 9.7 | 17.7 | 0.00 | 0.00 | 0.00 | 45 | 1025.0 |
| 20260502184637 | 16 | 200 | 3.2 | 19.3 | 0.00 | 0.00 | 0.00 | 48 | 1025.4 |
| 20260502183134 | 16 | 156 | 3.2 | 11.3 | 0.00 | 0.00 | 0.00 | 48 | 1025.5 |
| 20260502181627 | 16 | 136 | 9.7 | 12.9 | 0.00 | 0.00 | 0.00 | 51 | 1025.9 |
| 20260502180125 | 15 | 156 | 8.0 | 11.3 | 0.00 | 0.00 | 0.00 | 54 | 1026.0 |
| 20260502170139 | 14 | 86 | 1.6 | 6.4 | 0.00 | 0.00 | 0.00 | 56 | 1026.6 |
| 20260502163130 | 12 | 90 | 1.6 | 4.8 | 0.00 | 0.00 | 0.00 | 64 | 1026.5 |
| 20260502161626 | 11 | 26 | 1.6 | 6.4 | 0.00 | 0.00 | 0.00 | 63 | 1026.4 |
| 20260502160140 | 11 | 49 | 4.8 | 6.4 | 0.00 | 0.00 | 0.00 | 68 | 1026.4 |
| 20260502151643 | 10 | 267 | 0.0 | 1.6 | 0.00 | 0.00 | 0.00 | 70 | 1026.1 |
| 20260502150133 | 10 | 295 | 0.0 | 6.4 | 0.00 | 0.00 | 0.00 | 72 | 1026.0 |
| 20260502140127 | 9 | 241 | 1.6 | 4.8 | 0.00 | 0.03 | 0.00 | 74 | 1025.4 |
| 20260502130158 | 8 | 256 | 0.0 | 1.6 | 0.00 | 0.18 | 0.00 | 75 | 1024.9 |
| 20260502123126 | 8 | 158 | 0.0 | 1.6 | 0.00 | 0.33 | 0.00 | 74 | 1024.6 |
| 20260502121659 | 8 | 130 | 1.6 | 3.2 | 0.00 | 0.33 | 0.00 | 73 | 1024.6 |
| 20260502120135 | 9 | 166 | 1.6 | 3.2 | 0.00 | 0.33 | 0.00 | 72 | 1024.5 |
| 20260502114647 | 9 | 213 | 0.0 | 3.2 | 0.00 | 0.61 | 0.00 | 72 | 1024.5 |
| 20260502113142 | 9 | 155 | 1.6 | 3.2 | 0.00 | 0.61 | 0.00 | 72 | 1024.5 |
| 20260502111633 | 9 | 206 | 1.6 | 8.0 | 0.00 | 0.61 | 0.00 | 71 | 1024.1 |
| 20260502110124 | 9 | 226 | 4.8 | 11.3 | 0.00 | 0.61 | 0.00 | 72 | 1024.1 |
| 20260502104640 | 9 | 229 | 4.8 | 9.7 | 0.00 | 1.70 | 0.00 | 71 | 1023.9 |
| 20260502103131 | 9 | 211 | 3.2 | 6.4 | 0.00 | 1.70 | 0.00 | 71 | 1023.8 |
| 20260502101625 | 9 | 198 | 6.4 | 11.3 | 0.00 | 1.70 | 0.00 | 72 | 1023.8 |
| 20260502100136 | 9 | 173 | 4.8 | 11.3 | 0.00 | 1.70 | 0.00 | 72 | 1023.5 |
| 20260502090131 | 10 | 206 | 6.4 | 12.9 | 0.00 | 2.03 | 0.00 | 72 | 1023.1 |
| 20260502070135 | 10 | 109 | 3.2 | 3.2 | 0.00 | 2.03 | 0.00 | 70 | 1022.7 |
| 20260502064631 | 10 | 11 | 0.0 | 0.0 | 0.00 | 2.03 | 0.00 | 69 | 1022.7 |
| 20260502063122 | 10 | 10 | 0.0 | 1.6 | 0.00 | 2.03 | 0.00 | 69 | 1022.7 |
| 20260502061635 | 10 | 329 | 1.6 | 6.4 | 0.00 | 2.03 | 0.00 | 67 | 1023.0 |
| 20260502060132 | 11 | 327 | 4.8 | 11.3 | 0.00 | 2.03 | 0.00 | 67 | 1022.8 |
| 20260502054624 | 11 | 328 | 4.8 | 12.9 | 0.00 | 2.03 | 2.03 | 67 | 1022.7 |
| 20260502053140 | 11 | 305 | 6.4 | 11.3 | 0.00 | 2.03 | 2.03 | 67 | 1022.7 |
| 20260502051652 | 11 | 303 | 8.0 | 14.5 | 0.00 | 2.03 | 2.03 | 65 | 1022.4 |
| 20260502050128 | 11 | 315 | 9.7 | 16.1 | 0.00 | 2.03 | 2.03 | 67 | 1022.3 |
| 20260502044640 | 11 | 324 | 6.4 | 11.3 | 0.00 | 2.03 | 2.03 | 68 | 1022.1 |
| 20260502043131 | 11 | 304 | 6.4 | 12.9 | 0.00 | 2.03 | 2.03 | 67 | 1022.3 |
| 20260502041627 | 12 | 331 | 4.8 | 16.1 | 0.00 | 2.03 | 2.03 | 66 | 1022.0 |
| 20260502040139 | 12 | 308 | 9.7 | 16.1 | 0.00 | 2.03 | 2.03 | 65 | 1021.7 |
| 20260502034635 | 12 | 286 | 8.0 | 16.1 | 0.00 | 2.03 | 2.03 | 66 | 1021.3 |
| 20260502033129 | 13 | 301 | 4.8 | 9.7 | 0.00 | 2.03 | 2.03 | 67 | 1021.0 |
| 20260502031644 | 13 | 295 | 1.6 | 4.8 | 0.00 | 2.03 | 2.03 | 68 | 1020.6 |
| 20260502030137 | 13 | 289 | 0.0 | 0.0 | 0.00 | 2.03 | 2.03 | 66 | 1020.3 |
| 20260502024629 | 13 | 16 | 0.0 | 0.0 | 0.00 | 2.03 | 2.03 | 65 | 1020.1 |
| 20260502023126 | 13 | 252 | 0.0 | 0.0 | 0.00 | 2.03 | 2.03 | 65 | 1019.6 |
| 20260502021639 | 13 | 238 | 1.6 | 4.8 | 0.00 | 2.03 | 2.03 | 64 | 1019.4 |
| 20260502020131 | 13 | 272 | 0.0 | 0.0 | 0.00 | 2.03 | 2.03 | 63 | 1019.1 |
| 20260502014626 | 15 | 247 | 0.0 | 4.8 | 0.00 | 2.03 | 2.03 | 61 | 1018.8 |
| 20260502013138 | 15 | 258 | 3.2 | 9.7 | 0.00 | 2.03 | 2.03 | 58 | 1018.6 |
| 20260502011631 | 16 | 283 | 4.8 | 11.3 | 0.00 | 2.03 | 2.03 | 56 | 1018.3 |
| 20260502010142 | 16 | 265 | 4.8 | 12.9 | 0.00 | 2.03 | 2.03 | 55 | 1018.1 |
| 20260502004653 | 16 | 279 | 6.4 | 16.1 | 0.00 | 2.03 | 2.03 | 52 | 1018.0 |
| 20260502003128 | 17 | 266 | 9.7 | 16.1 | 0.00 | 2.03 | 2.03 | 50 | 1017.8 |
| 20260502001637 | 18 | 252 | 8.0 | 17.7 | 0.00 | 2.03 | 2.03 | 51 | 1017.7 |
| 20260502000136 | 18 | 250 | 9.7 | 16.1 | 0.00 | 2.03 | 2.03 | 52 | 1017.5 |
| 20260501234627 | 18 | 290 | 9.7 | 14.5 | 0.00 | 2.03 | 2.03 | 48 | 1017.3 |
| 20260501233124 | 18 | 237 | 6.4 | 16.1 | 0.00 | 2.03 | 2.03 | 47 | 1017.3 |
| 20260501231658 | 18 | 282 | 3.2 | 12.9 | 0.00 | 2.03 | 2.03 | 50 | 1016.9 |
| 20260501230128 | 18 | 229 | 12.9 | 17.7 | 0.00 | 2.03 | 2.03 | 50 | 1016.8 |
| 20260501224624 | 17 | 272 | 6.4 | 17.7 | 0.00 | 2.03 | 2.03 | 49 | 1017.0 |
| 20260501223137 | 18 | 259 | 8.0 | 14.5 | 0.00 | 2.03 | 2.03 | 51 | 1017.0 |
| 20260501221632 | 18 | 289 | 4.8 | 12.9 | 0.00 | 2.03 | 2.03 | 54 | 1017.0 |
| 20260501220145 | 17 | 208 | 8.0 | 12.9 | 0.00 | 2.03 | 2.03 | 61 | 1016.9 |
| 20260501214637 | 17 | 253 | 6.4 | 11.3 | 0.00 | 2.03 | 2.03 | 64 | 1017.1 |
| 20260501213134 | 16 | 239 | 8.0 | 12.9 | 0.00 | 2.03 | 2.03 | 65 | 1017.4 |
| 20260501211625 | 17 | 220 | 9.7 | 16.1 | 0.00 | 2.03 | 2.03 | 67 | 1017.3 |
| 20260501210122 | 16 | 207 | 6.4 | 12.9 | 0.00 | 2.03 | 2.03 | 69 | 1017.4 |
| 20260501204635 | 16 | 121 | 6.4 | 11.3 | 0.00 | 2.03 | 2.03 | 67 | 1017.5 |
| 20260501203132 | 16 | 223 | 4.8 | 9.7 | 0.00 | 2.03 | 2.03 | 71 | 1017.5 |
| 20260501201623 | 15 | 125 | 3.2 | 6.4 | 0.00 | 2.03 | 2.03 | 72 | 1017.6 |
| 20260501200136 | 15 | 125 | 1.6 | 6.4 | 0.00 | 2.03 | 2.03 | 72 | 1017.6 |